Leon, Spain

10:13 PM CET en Diciembre 18, 2018 (GMT +0100)
Leon

Tiempo Historia de LELN - Diciembre, 2018

Change the Weather History Date:

Jueves, Diciembre 6, 2018

  Actual Average Record
Temperature  
Temperatura media 40 ° F -  
Temperatura máxima 46 ° F - - ()
Temperatura mínima 35 ° F - - ()
Degree Days  
Grados día de calefacción 24    
Moisture  
Punto de rocío 41 ° F    
Average Humidity 100    
Maximum Humidity 100    
Minimum Humidity 97    
Precipitación  
Precipitación 0.00 pul - - ()
Presión al nivel del mar  
Presión al nivel del mar 30.40 pul    
Viento  
Velocidad del viento 3 mph ()    
Velocidad máxima del viento 7 mph    
Max Gust Speed -    
Visibilidad 1.1 Millas    
Eventos Niebla , Lluvia    
T = Trace of Precipitation, MM = Missing Value Source: Averaged Metar Reports

Daily Weather History Graph

Daily Weather History Graph

Search for Another Location

Airport or City:

Astronomía

Dec. 06, 2018 Salida Puesta
Hora real 8:37 AM CET 5:49 PM CET
Crepúsculo civil 8:05 AM CET 6:21 PM CET
Crepúsculo náutico 7:30 AM CET 6:56 PM CET
Crepúsculo astronómico 6:56 AM CET 7:30 PM CET
Luna 7:29 AM CET (12/6) 5:37 PM CET (12/6)
Horas de luz 10h 15m
Horas de luz
9h 11m
Creciente menguante, 1% of the Moon is Illuminated
Dic 6
Creciente menguante
Dic 7
Nueva
Dic 15
Cuarto creciente
Dic 22
Luna llena
Dic 29
Cuarto menguante

Hourly Weather History & Observations

Hora (CET) Temp. Vientos helados Punto de rocío Humedad Presión Visibilidad Wind Dir Velocidad del viento Velocidad de ráfagas Precip Eventos Condiciones
12:00 AM 43 ° F - 43 ° F 98%  pul - SE 4.6 mph - -  
12:00 AM 42.8 ° F 41.1 ° F 42.8 ° F 100% 30.36 pul 0.1 mi ESE 3.5 mph - N/A Niebla Niebla
12:30 AM 44.6 ° F 42.2 ° F 44.6 ° F 100% 30.36 pul 5.6 mi OSO 4.6 mph - N/A   Desconocido
1:00 AM 47 ° F - 47 ° F 100%  pul - NNE 4.6 mph - -  
1:00 AM 41.0 ° F 38.0 ° F 41.0 ° F 100% 30.36 pul 5.6 mi NNE 4.6 mph - N/A Niebla Bancos de niebla
1:30 AM 42.8 ° F - 42.8 ° F 100% 30.36 pul 5.6 mi Variable 2.3 mph - N/A Niebla Bancos de niebla
2:00 AM 46 ° F - 46 ° F 97%  pul - OSO 2.3 mph - -  
2:00 AM 41.0 ° F - 41.0 ° F 100% 30.36 pul 5.6 mi Variable 2.3 mph - N/A Niebla Bancos de niebla
2:30 AM 41.0 ° F 38.0 ° F 41.0 ° F 100% 30.36 pul 4.3 mi NE 4.6 mph - N/A Niebla Bancos de niebla
3:00 AM 41 ° F - 41 ° F 99%  pul - SE 3.5 mph - -  
3:00 AM 41.0 ° F - 41.0 ° F 100% 30.36 pul 0.1 mi ESE 2.3 mph - N/A Niebla Niebla
3:30 AM 41.0 ° F - 41.0 ° F 100% 30.39 pul 0.1 mi Variable 2.3 mph - N/A Niebla Niebla
4:00 AM 40 ° F - 40 ° F 100%  pul - SE 2.3 mph - -  
4:00 AM 41.0 ° F - 41.0 ° F 100% 30.36 pul 0.0 mi Variable 2.3 mph - N/A Niebla Niebla
4:30 AM 41.0 ° F - 41.0 ° F 100% 30.36 pul 0.0 mi Variable 2.3 mph - N/A Niebla Niebla
5:00 AM 41 ° F - 41 ° F 99%  pul - Sin viento Sin viento - -   Precipitación desconocida
5:00 AM 39.2 ° F - 39.2 ° F 100% 30.39 pul 0.0 mi Sin viento Sin viento - N/A Niebla Niebla
5:30 AM 41.0 ° F - 41.0 ° F 100% 30.39 pul 0.1 mi Sin viento Sin viento - N/A Niebla , Lluvia Lluvia
6:00 AM 40 ° F - 40 ° F 98%  pul - NNO 3.5 mph - -   Precipitación desconocida
6:00 AM 39.2 ° F - 39.2 ° F 100% 30.36 pul 0.0 mi Variable 2.3 mph - N/A Niebla , Lluvia Lluvia débil
6:30 AM 39.2 ° F - 39.2 ° F 100% 30.36 pul 0.1 mi Variable 2.3 mph - N/A Niebla , Lluvia Lluvia débil
7:00 AM 37.4 ° F 34.9 ° F 37.4 ° F 100% 30.39 pul 0.2 mi Norte 3.5 mph - N/A Niebla Niebla
7:30 AM 37.4 ° F 34.9 ° F 37.4 ° F 100% 30.39 pul 0.1 mi NNE 3.5 mph - N/A Niebla Niebla
8:30 AM 37.4 ° F - 37.4 ° F 100% 30.39 pul 0.1 mi Variable 1.2 mph - N/A Niebla Niebla
9:00 AM 37 ° F - 37 ° F 98%  pul - Norte 3.5 mph - -  
9:00 AM 37.4 ° F - 37.4 ° F 100% 30.39 pul 0.1 mi Variable 2.3 mph - N/A Niebla Niebla
9:30 AM 35.6 ° F 31.7 ° F 35.6 ° F 100% 30.42 pul 0.1 mi Norte 4.6 mph - N/A Niebla Niebla
10:00 AM 36 ° F - 36 ° F 100%  pul 0 mi NNE 2.3 mph - - Niebla Abundante niebla
10:00 AM 35.6 ° F 32.8 ° F 35.6 ° F 100% 30.42 pul 0.1 mi Variable 3.5 mph - N/A Niebla Niebla
10:30 AM 37.4 ° F 33.8 ° F 37.4 ° F 100% 30.42 pul 0.1 mi NNE 4.6 mph - N/A Niebla Niebla
11:00 AM 38 ° F - 38 ° F 100%  pul - NNE 4.6 mph - -  
11:00 AM 39.2 ° F 35.9 ° F 39.2 ° F 100% 30.45 pul 0.1 mi NNE 4.6 mph - N/A Niebla Niebla
11:30 AM 39.2 ° F - 39.2 ° F 100% 30.45 pul 0.1 mi Variable 2.3 mph - N/A Niebla Niebla
12:00 PM 40 ° F - 40 ° F 100%  pul - ENE 2.3 mph - -  
12:00 PM 39.2 ° F - 39.2 ° F 100% 30.45 pul 0.1 mi Variable 2.3 mph - N/A Niebla Niebla
12:30 PM 41.0 ° F - 41.0 ° F 100% 30.42 pul 0.1 mi Variable 2.3 mph - N/A Niebla Niebla
1:00 PM 45 ° F - 45 ° F 98%  pul 0 mi Este 3.5 mph - - Niebla Poca niebla
1:00 PM 42.8 ° F - 42.8 ° F 100% 30.42 pul 0.2 mi Variable 2.3 mph - N/A Niebla Niebla
1:30 PM 42.8 ° F 40.1 ° F 42.8 ° F 100% 30.42 pul 0.2 mi SE 4.6 mph - N/A Niebla Niebla
2:00 PM 44 ° F - 44 ° F 100%  pul - SE 5.8 mph - -  
2:00 PM 42.8 ° F 40.1 ° F 42.8 ° F 100% 30.39 pul 0.2 mi SE 4.6 mph - N/A Niebla Niebla
2:30 PM 42.8 ° F 39.3 ° F 42.8 ° F 100% 30.39 pul 0.3 mi SSE 5.8 mph - N/A Niebla Niebla
3:00 PM 45 ° F - 45 ° F 100%  pul - SSE 6.9 mph - -  
3:00 PM 44.6 ° F 41.4 ° F 44.6 ° F 100% 30.39 pul 0.5 mi SSE 5.8 mph - N/A Niebla Niebla
3:06 PM 44.6 ° F 41.4 ° F 44.6 ° F 100% 30.39 pul 0.9 mi SE 5.8 mph - N/A   Muy nublado
3:30 PM 42.8 ° F 39.3 ° F 42.8 ° F 100% 30.39 pul 0.3 mi ESE 5.8 mph - N/A Niebla Niebla
4:00 PM 44 ° F - 44 ° F 98%  pul 0 mi SE 6.9 mph - - Niebla Abundante niebla
4:00 PM 42.8 ° F 39.3 ° F 42.8 ° F 100% 30.39 pul 0.3 mi SE 5.8 mph - N/A Niebla Niebla
4:30 PM 42.8 ° F 40.1 ° F 42.8 ° F 100% 30.39 pul 0.3 mi SSE 4.6 mph - N/A Niebla Niebla
5:00 PM 42.8 ° F 39.3 ° F 42.8 ° F 100% 30.39 pul 0.2 mi SSE 5.8 mph - N/A Niebla Niebla
5:30 PM 41.0 ° F 38.0 ° F 41.0 ° F 100% 30.39 pul 0.2 mi SE 4.6 mph - N/A Niebla Niebla
6:00 PM 41.0 ° F 39.0 ° F 41.0 ° F 100% 30.39 pul 0.2 mi SE 3.5 mph - N/A Niebla Niebla
6:30 PM 41.0 ° F 39.0 ° F 41.0 ° F 100% 30.39 pul 0.2 mi ESE 3.5 mph - N/A Niebla Niebla
7:00 PM 41 ° F - 41 ° F 100%  pul 0 mi SE 2.3 mph - - Niebla Abundante niebla
7:00 PM 41.0 ° F - 41.0 ° F 100% 30.42 pul 0.2 mi Variable 2.3 mph - N/A Niebla Niebla
7:30 PM 41.0 ° F - 41.0 ° F 100% 30.42 pul 0.2 mi Variable 1.2 mph - N/A Niebla Niebla
8:00 PM 40 ° F - 40 ° F 100%  pul - Este 3.5 mph - -  
8:00 PM 41.0 ° F - 41.0 ° F 100% 30.42 pul 0.2 mi Variable 2.3 mph - N/A Niebla Niebla
8:30 PM 41.0 ° F 39.0 ° F 41.0 ° F 100% 30.42 pul 0.4 mi ESE 3.5 mph - N/A Niebla Niebla
9:00 PM 41 ° F - 41 ° F 98%  pul - SSE 1.2 mph - -  
9:00 PM 41.0 ° F - 41.0 ° F 100% 30.42 pul 1.0 mi Variable 1.2 mph - N/A   Nublado
9:30 PM 41.0 ° F - 41.0 ° F 100% 30.42 pul 3.7 mi Sin viento Sin viento - N/A   Nublado
10:00 PM 41 ° F - 41 ° F 98%  pul - NNO 2.3 mph - -  
10:00 PM 39.2 ° F - 39.2 ° F 100% 30.42 pul 6.2 mi Variable 2.3 mph - N/A   Nublado
10:30 PM 39.2 ° F - 39.2 ° F 100% 30.42 pul 3.7 mi Sin viento Sin viento - N/A   Nublado
11:00 PM 40 ° F - 40 ° F 100%  pul - Oeste 4.6 mph - -  
11:00 PM 39.2 ° F 37.0 ° F 39.2 ° F 100% 30.42 pul 6.2 mi Oeste 3.5 mph - N/A   Nublado
11:30 PM 37.4 ° F 33.8 ° F 37.4 ° F 100% 30.42 pul - ONO 4.6 mph - N/A Niebla Nublado